Darstellungsparameter: Aktuell verwendete Einstellungen:
Skalierung der Graphiken ... ?
xyx+y,   Skalierungsfaktor:      Skalierung: Modus: x, Faktor: 1
Darstellungszeitraum ... ?
Vom - - bis: - -   Zeitraum: 16.06.2010 - 22.06.2010
Min/Max/Avg-Anzeige ... ?
Zeige MMA aktuell
Zeige MMA Monat
Zeige MMA alles
Zeige --A aktuell
Zeige --A Monat
Zeige --A alles
Keine MMA-Anzeige
MMA:
Average (ber die Originaldaten)
MMA-Basis: 16.06.2010 - 22.06.2010
Quicknavigation für Darstellung... ?
Tage:      1T, 2T, 3T, 5T -1T -2T -3T -5T +1T +2T +3T +5T
Wochen: 1W, 2W, 3W -1W -2W -3W +1W +2W +3W
Monate: 1M, 3M, 6M -1M -3M -6M +1M +3M +6M
Jahre:    1J, 3J, 5J, 10J -1J -3J -5J -10J +1J +3J +5J +10J
Nutze für die Darstellung ... ?
Originaldaten oder Mittelwerte auf ...
Stundenbasis Tagesbasis Wochenbasis
Monatsbasis Jahresbasis      Datenbasis: Original-Daten
Darstellen als:
Statistik (Auto) Statistik J:M      Darstellung:
Zur Graphik,    zurück zur Übersicht aller Sensoren.
 
Tabellarische Datenbersicht: ?
 
Sensor: Nr:Datum:Temp:Abs-Feuchte:Windchill:Wind:
Aussen-T/F 1 16-06-2010 00:00:01 15.2 C 6.1 g/m*3 15.2 C 0 km/h
2 16-06-2010 00:12:01 15 C 5.9 g/m*3 15 C 0 km/h
3 16-06-2010 00:24:02 14.6 C 6.01 g/m*3 14.6 C 0 km/h
4 16-06-2010 00:36:02 14.4 C 6.06 g/m*3 14.4 C 0 km/h
5 16-06-2010 00:48:02 14.2 C 6.11 g/m*3 14.2 C 0 km/h
6 16-06-2010 01:00:02 13.8 C 6.08 g/m*3 13.8 C 0 km/h
7 16-06-2010 01:12:02 13.5 C 6.2 g/m*3 13.5 C 0 km/h
8 16-06-2010 01:24:02 13.4 C 6.28 g/m*3 13.4 C 0 km/h
9 16-06-2010 01:36:02 13.2 C 6.2 g/m*3 13.2 C 0 km/h
10 16-06-2010 01:48:02 13.1 C 6.28 g/m*3 13.1 C 0 km/h
11 16-06-2010 02:00:02 13 C 6.24 g/m*3 13 C 0 km/h
12 16-06-2010 02:12:02 12.9 C 6.2 g/m*3 12.9 C 0 km/h
13 16-06-2010 02:24:02 12.7 C 6.12 g/m*3 12.7 C 0 km/h
14 16-06-2010 02:36:02 12.5 C 6.05 g/m*3 12.5 C 0 km/h
15 16-06-2010 02:48:02 12.4 C 6.12 g/m*3 12.4 C 0 km/h
16 16-06-2010 03:00:02 12.2 C 6.04 g/m*3 12.2 C 0 km/h
17 16-06-2010 03:12:02 12 C 6.07 g/m*3 12 C 0 km/h
18 16-06-2010 03:24:02 11.8 C 6.1 g/m*3 11.8 C 0 km/h
19 16-06-2010 03:36:02 11.6 C 6.13 g/m*3 11.6 C 0 km/h
20 16-06-2010 03:48:02 11.5 C 6.09 g/m*3 11.5 C 0 km/h
21 16-06-2010 04:00:02 11.4 C 6.16 g/m*3 11.4 C 0 km/h
22 16-06-2010 04:12:02 11.3 C 6.22 g/m*3 11.3 C 0 km/h
23 16-06-2010 04:24:03 11.1 C 6.14 g/m*3 11.1 C 0 km/h
24 16-06-2010 04:36:03 11.1 C 6.04 g/m*3 11.1 C 0 km/h
25 16-06-2010 04:48:03 11.1 C 6.14 g/m*3 11.1 C 0 km/h
Sensor: Nr:Datum:Temp:Abs-Feuchte:Windchill:Wind:
Aussen-T/F 26 16-06-2010 05:00:03 10.9 C 6.17 g/m*3 10.9 C 0 km/h
27 16-06-2010 05:12:03 10.8 C 6.23 g/m*3 10.8 C 0 km/h
28 16-06-2010 05:24:03 10.6 C 6.15 g/m*3 10.6 C 0 km/h
29 16-06-2010 05:36:03 10.5 C 6.21 g/m*3 10.5 C 0 km/h
30 16-06-2010 05:48:03 10.5 C 6.21 g/m*3 10.5 C 0 km/h
31 16-06-2010 06:00:03 10.5 C 6.3 g/m*3 10.5 C 0 km/h
32 16-06-2010 06:12:03 10.6 C 6.34 g/m*3 10.6 C 0 km/h
33 16-06-2010 06:24:03 10.7 C 6.48 g/m*3 10.7 C 0 km/h
34 16-06-2010 06:36:03 10.8 C 6.52 g/m*3 10.8 C 0 km/h
35 16-06-2010 06:48:03 10.9 C 6.56 g/m*3 10.9 C 0 km/h
36 16-06-2010 07:00:03 11.1 C 6.65 g/m*3 11.1 C 0 km/h
37 16-06-2010 07:12:02 11.5 C 6.71 g/m*3 11.5 C 0 km/h
38 16-06-2010 07:24:01 11.9 C 6.88 g/m*3 11.9 C 0 km/h
39 16-06-2010 07:36:02 12.1 C 6.86 g/m*3 12.1 C 0 km/h
40 16-06-2010 07:48:02 12.5 C 6.82 g/m*3 12.5 C 0 km/h
41 16-06-2010 08:00:02 12.9 C 6.76 g/m*3 12.9 C 0 km/h
42 16-06-2010 08:12:02 13.3 C 6.47 g/m*3 13.3 C 0 km/h
43 16-06-2010 08:24:02 13.7 C 6.39 g/m*3 13.7 C 0 km/h
44 16-06-2010 08:36:02 14.1 C 6.07 g/m*3 14.1 C 0 km/h
45 16-06-2010 08:48:01 14.5 C 5.97 g/m*3 14.5 C 0 km/h
46 16-06-2010 09:00:01 14.9 C 5.86 g/m*3 14.9 C 0 km/h
47 16-06-2010 09:12:02 15.5 C 5.82 g/m*3 15.5 C 0 km/h
48 16-06-2010 09:24:01 16 C 5.59 g/m*3 16 C 0 km/h
49 16-06-2010 09:36:01 16.5 C 5.76 g/m*3 16.5 C 0 km/h
50 16-06-2010 09:48:02 16.9 C 5.61 g/m*3 16.9 C 0 km/h
Sensor: Nr:Datum:Temp:Abs-Feuchte:Windchill:Wind:
Aussen-T/F 51 16-06-2010 10:00:02 17.3 C 5.3 g/m*3 17.3 C 0 km/h
52 16-06-2010 10:12:02 17.5 C 5.37 g/m*3 17.5 C 0 km/h
53 16-06-2010 10:24:02 18.3 C 5.32 g/m*3 18.3 C 0 km/h
54 16-06-2010 10:36:02 18.6 C 5.09 g/m*3 18.6 C 0 km/h
55 16-06-2010 10:48:02 19.1 C 4.92 g/m*3 19.1 C 0 km/h
56 16-06-2010 11:00:02 19.4 C 4.5 g/m*3 19.4 C 0 km/h
57 16-06-2010 11:12:02 19.7 C 4.75 g/m*3 19.7 C 0 km/h
58 16-06-2010 11:24:02 20.3 C 4.4 g/m*3 20.3 C 0 km/h
59 16-06-2010 11:36:02 21.3 C 4.66 g/m*3 21.3 C 0 km/h
60 16-06-2010 11:48:02 21.7 C 4.58 g/m*3 21.7 C 0 km/h
61 16-06-2010 12:00:02 22.3 C 4.54 g/m*3 22.3 C 0 km/h
62 16-06-2010 12:12:02 23 C 4.32 g/m*3 23 C 0 km/h
63 16-06-2010 12:24:02 23.7 C 4.49 g/m*3 23.7 C 0 km/h
64 16-06-2010 12:36:01 23.7 C 4.28 g/m*3 23.7 C 0 km/h
65 16-06-2010 12:48:02 24.4 C 4.45 g/m*3 24.4 C 0 km/h
66 16-06-2010 13:00:02 25.1 C 4.63 g/m*3 25.1 C 0 km/h
67 16-06-2010 13:12:01 25.6 C 4.76 g/m*3 25.6 C 0 km/h
68 16-06-2010 13:24:02 26.2 C 4.92 g/m*3 26.2 C 0 km/h
69 16-06-2010 13:36:02 27.2 C 5.2 g/m*3 27.2 C 0 km/h
70 16-06-2010 13:48:02 27.1 C 5.18 g/m*3 27.1 C 0 km/h
71 16-06-2010 14:00:03 26.2 C 4.92 g/m*3 26.2 C 0 km/h
72 16-06-2010 14:12:02 25.4 C 4.71 g/m*3 25.4 C 0 km/h
73 16-06-2010 14:24:02 25.4 C 4.71 g/m*3 25.4 C 0 km/h
74 16-06-2010 14:36:02 25.3 C 4.68 g/m*3 25.3 C 0 km/h
75 16-06-2010 14:48:02 25.5 C 4.73 g/m*3 25.5 C 0 km/h
Sensor: Nr:Datum:Temp:Abs-Feuchte:Windchill:Wind:
Aussen-T/F 76 16-06-2010 15:00:02 25.7 C 4.79 g/m*3 25.7 C 0 km/h
77 16-06-2010 15:12:02 25.8 C 4.82 g/m*3 25.8 C 0 km/h
78 16-06-2010 15:24:01 26.2 C 4.92 g/m*3 26.2 C 0 km/h
79 16-06-2010 15:36:02 26.5 C 5.01 g/m*3 26.5 C 0 km/h
80 16-06-2010 15:48:02 26.6 C 5.03 g/m*3 26.6 C 0 km/h
81 16-06-2010 16:00:02 27.1 C 5.18 g/m*3 27.1 C 0 km/h
82 16-06-2010 16:12:02 27.2 C 5.2 g/m*3 27.2 C 0 km/h
83 16-06-2010 16:24:02 26.9 C 5.12 g/m*3 26.9 C 0 km/h
84 16-06-2010 16:36:02 27.3 C 5.23 g/m*3 27.3 C 0 km/h
85 16-06-2010 16:48:02 26.9 C 5.12 g/m*3 26.9 C 0 km/h
86 16-06-2010 17:00:02 26.5 C 5.01 g/m*3 26.5 C 0 km/h
87 16-06-2010 17:12:02 26.3 C 4.95 g/m*3 26.3 C 0 km/h
88 16-06-2010 17:24:02 27.9 C 5.41 g/m*3 27.9 C 0 km/h
89 16-06-2010 17:36:02 27.5 C 5.29 g/m*3 27.5 C 0 km/h
90 16-06-2010 17:48:01 26.5 C 5.01 g/m*3 26.5 C 0 km/h
91 16-06-2010 18:00:01 26.9 C 5.12 g/m*3 26.9 C 0 km/h
92 16-06-2010 18:12:02 26.9 C 5.12 g/m*3 26.9 C 0 km/h
93 16-06-2010 18:24:01 26.9 C 5.12 g/m*3 26.9 C 0 km/h
94 16-06-2010 18:36:01 26.3 C 4.95 g/m*3 26.3 C 0 km/h
95 16-06-2010 18:48:01 26.1 C 4.9 g/m*3 26.1 C 0 km/h
96 16-06-2010 19:00:01 26.6 C 5.03 g/m*3 26.6 C 0 km/h
97 16-06-2010 19:12:02 25.7 C 4.79 g/m*3 25.7 C 0 km/h
98 16-06-2010 19:24:01 24.9 C 4.58 g/m*3 24.9 C 0 km/h
99 16-06-2010 19:36:01 24.1 C 4.59 g/m*3 24.1 C 0 km/h
100 16-06-2010 19:48:01 24.1 C 5.03 g/m*3 24.1 C 0 km/h
Sensor: Nr:Datum:Temp:Abs-Feuchte:Windchill:Wind:
Aussen-T/F 101 16-06-2010 20:00:01 23.9 C 5.19 g/m*3 23.9 C 0 km/h
102 16-06-2010 20:12:01 23.1 C 5.17 g/m*3 23.1 C 0 km/h
103 16-06-2010 20:24:02 22.5 C 5.19 g/m*3 22.5 C 0 km/h
104 16-06-2010 20:36:01 22.5 C 5.39 g/m*3 22.5 C 0 km/h
105 16-06-2010 20:48:03 22.2 C 5.3 g/m*3 22.2 C 0 km/h
106 16-06-2010 21:00:03 21.9 C 5.79 g/m*3 21.9 C 0 km/h
107 16-06-2010 21:12:02 21.3 C 5.78 g/m*3 21.3 C 0 km/h
108 16-06-2010 21:24:03 20.8 C 5.79 g/m*3 20.8 C 0 km/h
109 16-06-2010 21:36:02 20.2 C 5.94 g/m*3 20.2 C 0 km/h
110 16-06-2010 21:48:02 19.6 C 5.91 g/m*3 19.6 C 0 km/h
111 16-06-2010 22:00:02 19.1 C 5.74 g/m*3 19.1 C 0 km/h
112 16-06-2010 22:12:02 18.8 C 5.8 g/m*3 18.8 C 0 km/h
113 16-06-2010 22:24:02 18.5 C 5.7 g/m*3 18.5 C 0 km/h
114 16-06-2010 22:36:02 18.3 C 5.79 g/m*3 18.3 C 0 km/h
115 16-06-2010 22:48:02 18.2 C 5.75 g/m*3 18.2 C 0 km/h
116 16-06-2010 23:00:02 18 C 5.84 g/m*3 18 C 0 km/h
117 16-06-2010 23:12:02 17.6 C 5.85 g/m*3 17.6 C 0 km/h
118 16-06-2010 23:24:02 17.2 C 5.86 g/m*3 17.2 C 0 km/h
119 16-06-2010 23:37:02 17 C 5.93 g/m*3 17 C 0 km/h
120 16-06-2010 23:49:02 16.8 C 6 g/m*3 16.8 C 0 km/h
121 17-06-2010 00:01:02 16.5 C 5.9 g/m*3 16.5 C 0 km/h
122 17-06-2010 00:13:02 16.3 C 5.97 g/m*3 16.3 C 0 km/h
123 17-06-2010 00:25:02 16 C 5.99 g/m*3 16 C 0 km/h
124 17-06-2010 00:37:02 16 C 5.99 g/m*3 16 C 0 km/h
125 17-06-2010 00:49:02 15.8 C 6.06 g/m*3 15.8 C 0 km/h
Sensor: Nr:Datum:Temp:Abs-Feuchte:Windchill:Wind:
Aussen-T/F 126 17-06-2010 01:01:02 15.6 C 6.12 g/m*3 15.6 C 0 km/h
127 17-06-2010 01:13:03 15.5 C 5.95 g/m*3 15.5 C 0 km/h
128 17-06-2010 01:25:03 15.4 C 6.04 g/m*3 15.4 C 0 km/h
129 17-06-2010 01:37:03 15.2 C 6.1 g/m*3 15.2 C 0 km/h
130 17-06-2010 01:49:03 15.2 C 6.1 g/m*3 15.2 C 0 km/h
131 17-06-2010 02:01:03 15 C 6.03 g/m*3 15 C 0 km/h
132 17-06-2010 02:13:03 14.9 C 6.12 g/m*3 14.9 C 0 km/h
133 17-06-2010 02:25:03 14.8 C 6.21 g/m*3 14.8 C 0 km/h
134 17-06-2010 02:37:03 14.6 C 6.13 g/m*3 14.6 C 0 km/h
135 17-06-2010 02:49:03 14.5 C 6.22 g/m*3 14.5 C 0 km/h
136 17-06-2010 03:01:03 14.5 C 6.22 g/m*3 14.5 C 0 km/h
137 17-06-2010 03:13:03 14.5 C 6.09 g/m*3 14.5 C 0 km/h
138 17-06-2010 03:25:03 14.5 C 6.09 g/m*3 14.5 C 0 km/h
139 17-06-2010 03:37:03 14.5 C 6.09 g/m*3 14.5 C 0 km/h
140 17-06-2010 03:49:03 14.4 C 6.06 g/m*3 14.4 C 0 km/h
141 17-06-2010 04:01:03 14.2 C 5.98 g/m*3 14.2 C 0 km/h
142 17-06-2010 04:13:03 14.3 C 6.02 g/m*3 14.3 C 0 km/h
143 17-06-2010 04:25:03 14.1 C 5.95 g/m*3 14.1 C 0 km/h
144 17-06-2010 04:37:03 14.1 C 5.83 g/m*3 14.1 C 0 km/h
145 17-06-2010 04:49:03 14 C 5.91 g/m*3 14 C 0 km/h
146 17-06-2010 05:01:03 13.8 C 5.84 g/m*3 13.8 C 0 km/h
147 17-06-2010 05:13:04 13.8 C 5.84 g/m*3 13.8 C 0 km/h
148 17-06-2010 05:25:04 13.6 C 5.77 g/m*3 13.6 C 0 km/h
149 17-06-2010 05:37:04 13.5 C 5.85 g/m*3 13.5 C 0 km/h
150 17-06-2010 05:49:04 13.4 C 5.93 g/m*3 13.4 C 0 km/h
Sensor: Nr:Datum:Temp:Abs-Feuchte:Windchill:Wind:
Aussen-T/F 151 17-06-2010 06:01:04 13.5 C 5.97 g/m*3 13.5 C 0 km/h
152 17-06-2010 06:13:04 13.5 C 5.97 g/m*3 13.5 C 0 km/h
153 17-06-2010 06:25:04 13.7 C 6.16 g/m*3 13.7 C 0 km/h
154 17-06-2010 06:37:04 14.1 C 6.19 g/m*3 14.1 C 0 km/h
155 17-06-2010 06:49:04 14.4 C 6.43 g/m*3 14.4 C 0 km/h
156 17-06-2010 07:01:03 14.4 C 6.3 g/m*3 14.4 C 0 km/h
157 17-06-2010 07:13:04 14.7 C 6.17 g/m*3 14.7 C 0 km/h
158 17-06-2010 07:25:02 15.1 C 6.19 g/m*3 15.1 C 0 km/h
159 17-06-2010 07:37:03 15.5 C 6.21 g/m*3 15.5 C 0 km/h
160 17-06-2010 07:49:02 16 C 6.54 g/m*3 16 C 0 km/h
161 17-06-2010 08:01:02 16.2 C 6.62 g/m*3 16.2 C 0 km/h
162 17-06-2010 08:13:03 16.5 C 6.6 g/m*3 16.5 C 0 km/h
163 17-06-2010 08:25:01 16.6 C 6.64 g/m*3 16.6 C 0 km/h
164 17-06-2010 08:37:02 16.6 C 6.5 g/m*3 16.6 C 0 km/h
165 17-06-2010 08:49:02 16.8 C 6.72 g/m*3 16.8 C 0 km/h
166 17-06-2010 09:01:02 16.7 C 6.68 g/m*3 16.7 C 0 km/h
167 17-06-2010 09:13:02 15.1 C 7.61 g/m*3 15.1 C 0 km/h
168 17-06-2010 09:25:01 13.9 C 8.27 g/m*3 13.9 C 0 km/h
169 17-06-2010 09:37:02 13.5 C 8.66 g/m*3 13.5 C 0 km/h
170 17-06-2010 09:49:01 13.1 C 8.67 g/m*3 13.1 C 0 km/h
171 17-06-2010 10:01:02 12.9 C 9.02 g/m*3 12.9 C 0 km/h
172 17-06-2010 10:13:02 12.9 C 9.47 g/m*3 12.9 C 0 km/h
173 17-06-2010 10:25:02 13 C 9.64 g/m*3 13 C 0 km/h
174 17-06-2010 10:37:02 13.2 C 9.99 g/m*3 13.2 C 0 km/h
175 17-06-2010 10:49:01 13.2 C 9.99 g/m*3 13.2 C 0 km/h
Sensor: Nr:Datum:Temp:Abs-Feuchte:Windchill:Wind:
Aussen-T/F 176 17-06-2010 11:01:02 13.5 C 10.29 g/m*3 13.5 C 0 km/h
177 17-06-2010 11:13:02 13.8 C 10.48 g/m*3 13.8 C 0 km/h
178 17-06-2010 11:25:02 13.8 C 10.48 g/m*3 13.8 C 0 km/h
179 17-06-2010 11:37:02 14 C 10.61 g/m*3 14 C 0 km/h
180 17-06-2010 11:49:02 13.9 C 10.67 g/m*3 13.9 C 0 km/h
181 17-06-2010 12:01:02 14 C 10.74 g/m*3 14 C 0 km/h
182 17-06-2010 12:13:02 14 C 10.74 g/m*3 14 C 0 km/h
183 17-06-2010 12:25:02 13.7 C 10.54 g/m*3 13.7 C 0 km/h
184 17-06-2010 12:37:01 13.8 C 10.72 g/m*3 13.8 C 0 km/h
185 17-06-2010 12:49:02 13.8 C 10.72 g/m*3 13.8 C 0 km/h
186 17-06-2010 13:01:01 13.7 C 10.66 g/m*3 13.7 C 0 km/h
187 17-06-2010 13:13:01 13.7 C 10.78 g/m*3 13.7 C 0 km/h
188 17-06-2010 13:25:02 13.8 C 10.84 g/m*3 13.8 C 0 km/h
189 17-06-2010 13:37:01 13.8 C 10.84 g/m*3 13.8 C 0 km/h
190 17-06-2010 13:49:02 13.9 C 10.91 g/m*3 13.9 C 0 km/h
191 17-06-2010 14:01:02 13.7 C 10.89 g/m*3 13.7 C 0 km/h
192 17-06-2010 14:13:02 13.9 C 11.03 g/m*3 13.9 C 0 km/h
193 17-06-2010 14:25:02 14.2 C 11.23 g/m*3 14.2 C 0 km/h
194 17-06-2010 14:37:02 14.6 C 11.51 g/m*3 14.6 C 0 km/h
195 17-06-2010 14:49:02 15.4 C 11.96 g/m*3 15.4 C 0 km/h
196 17-06-2010 15:01:01 15.9 C 12.19 g/m*3 15.9 C 0 km/h
197 17-06-2010 15:13:01 16.4 C 12.28 g/m*3 16.4 C 0 km/h
198 17-06-2010 15:25:02 16.6 C 12.29 g/m*3 16.6 C 0 km/h
199 17-06-2010 15:37:01 17 C 12.44 g/m*3 17 C 0 km/h
200 17-06-2010 15:49:02 17 C 11.87 g/m*3 17 C 0 km/h
Sensor: Nr:Datum:Temp:Abs-Feuchte:Windchill:Wind:
Aussen-T/F 201 17-06-2010 16:01:01 17 C 12.01 g/m*3 17 C 0 km/h
202 17-06-2010 16:13:01 16.9 C 12.08 g/m*3 16.9 C 0 km/h
203 17-06-2010 16:25:02 16.8 C 12.01 g/m*3 16.8 C 0 km/h
204 17-06-2010 16:37:01 16.9 C 12.08 g/m*3 16.9 C 0 km/h
205 17-06-2010 16:49:03 17 C 12.01 g/m*3 17 C 0 km/h
206 17-06-2010 17:01:02 17 C 11.87 g/m*3 17 C 0 km/h
207 17-06-2010 17:13:02 16.6 C 11.72 g/m*3 16.6 C 0 km/h
208 17-06-2010 17:25:02 16.5 C 11.8 g/m*3 16.5 C 0 km/h
209 17-06-2010 17:37:02 16.5 C 11.8 g/m*3 16.5 C 0 km/h
210 17-06-2010 17:49:02 16.9 C 11.94 g/m*3 16.9 C 0 km/h
211 17-06-2010 18:01:03 17 C 11.58 g/m*3 17 C 0 km/h
212 17-06-2010 18:13:04 17 C 11.43 g/m*3 17 C 0 km/h
213 17-06-2010 18:25:03 17.2 C 11.72 g/m*3 17.2 C 0 km/h
214 17-06-2010 18:37:03 17.2 C 11.86 g/m*3 17.2 C 0 km/h
215 17-06-2010 18:49:02 17.2 C 11.86 g/m*3 17.2 C 0 km/h
216 17-06-2010 19:01:02 16.8 C 11.72 g/m*3 16.8 C 0 km/h
217 17-06-2010 19:13:02 16.8 C 12.01 g/m*3 16.8 C 0 km/h
218 17-06-2010 19:25:01 16.7 C 12.08 g/m*3 16.7 C 0 km/h
219 17-06-2010 19:37:02 16.5 C 12.08 g/m*3 16.5 C 0 km/h
220 17-06-2010 19:49:02 16.3 C 11.93 g/m*3 16.3 C 0 km/h
221 17-06-2010 20:01:02 16.2 C 12 g/m*3 16.2 C 0 km/h
222 17-06-2010 20:13:02 16 C 11.85 g/m*3 16 C 0 km/h
223 17-06-2010 20:25:02 15.8 C 11.85 g/m*3 15.8 C 0 km/h
224 17-06-2010 20:37:02 15.6 C 11.7 g/m*3 15.6 C 0 km/h
225 17-06-2010 20:49:01 15.5 C 11.63 g/m*3 15.5 C 0 km/h
Sensor: Nr:Datum:Temp:Abs-Feuchte:Windchill:Wind:
Aussen-T/F 226 17-06-2010 21:01:02 15.5 C 11.76 g/m*3 15.5 C 0 km/h
227 17-06-2010 21:13:02 15.5 C 11.76 g/m*3 15.5 C 0 km/h
228 17-06-2010 21:25:02 15.6 C 11.84 g/m*3 15.6 C 0 km/h
229 17-06-2010 21:37:02 15.4 C 11.69 g/m*3 15.4 C 0 km/h
230 17-06-2010 21:49:02 15.3 C 11.62 g/m*3 15.3 C 0 km/h
231 17-06-2010 22:01:02 15.2 C 11.68 g/m*3 15.2 C 0 km/h
232 17-06-2010 22:13:02 15.2 C 11.68 g/m*3 15.2 C 0 km/h
233 17-06-2010 22:25:01 15 C 11.54 g/m*3 15 C 0 km/h
234 17-06-2010 22:37:02 15 C 11.54 g/m*3 15 C 0 km/h
235 17-06-2010 22:50:02 14.9 C 11.6 g/m*3 14.9 C 0 km/h
236 17-06-2010 23:02:02 14.8 C 11.53 g/m*3 14.8 C 0 km/h
237 17-06-2010 23:14:02 14.6 C 11.39 g/m*3 14.6 C 0 km/h
238 17-06-2010 23:26:02 14.4 C 11.25 g/m*3 14.4 C 0 km/h
239 17-06-2010 23:38:02 14.3 C 11.18 g/m*3 14.3 C 0 km/h
240 17-06-2010 23:50:02 14.2 C 11.11 g/m*3 14.2 C 0 km/h
241 18-06-2010 00:02:02 14 C 10.98 g/m*3 14 C 0 km/h
242 18-06-2010 00:14:02 13.8 C 10.84 g/m*3 13.8 C 0 km/h
243 18-06-2010 00:26:02 13.7 C 10.89 g/m*3 13.7 C 0 km/h
244 18-06-2010 00:38:02 13.7 C 10.89 g/m*3 13.7 C 0 km/h
245 18-06-2010 00:50:02 13.8 C 10.96 g/m*3 13.8 C 0 km/h
246 18-06-2010 01:02:02 14 C 11.1 g/m*3 14 C 0 km/h
247 18-06-2010 01:14:02 14 C 11.1 g/m*3 14 C 0 km/h
248 18-06-2010 01:26:02 14 C 11.1 g/m*3 14 C 0 km/h
249 18-06-2010 01:38:02 14.1 C 11.17 g/m*3 14.1 C 0 km/h
250 18-06-2010 01:50:02 14.1 C 11.17 g/m*3 14.1 C 0 km/h
Sensor: Nr:Datum:Temp:Abs-Feuchte:Windchill:Wind:
Aussen-T/F 251 18-06-2010 02:02:02 14 C 11.1 g/m*3 14 C 0 km/h
252 18-06-2010 02:14:02 13.9 C 11.03 g/m*3 13.9 C 0 km/h
253 18-06-2010 02:26:02 13.8 C 10.96 g/m*3 13.8 C 0 km/h
254 18-06-2010 02:38:02 13.6 C 10.83 g/m*3 13.6 C 0 km/h
255 18-06-2010 02:50:03 13.5 C 10.76 g/m*3 13.5 C 0 km/h
256 18-06-2010 03:02:03 13.4 C 10.69 g/m*3 13.4 C 0 km/h
257 18-06-2010 03:14:03 13.6 C 10.83 g/m*3 13.6 C 0 km/h
258 18-06-2010 03:26:03 13.7 C 10.89 g/m*3 13.7 C 0 km/h
259 18-06-2010 03:38:03 13.5 C 10.76 g/m*3 13.5 C 0 km/h
260 18-06-2010 03:50:03 13.2 C 10.45 g/m*3 13.2 C 0 km/h
261 18-06-2010 04:02:03 12.9 C 10.26 g/m*3 12.9 C 0 km/h
262 18-06-2010 04:14:03 12.7 C 10.13 g/m*3 12.7 C 0 km/h
263 18-06-2010 04:26:03 12.4 C 9.94 g/m*3 12.4 C 0 km/h
264 18-06-2010 04:38:03 12.3 C 9.88 g/m*3 12.3 C 0 km/h
265 18-06-2010 04:50:03 12.2 C 9.82 g/m*3 12.2 C 0 km/h
266 18-06-2010 05:02:03 12.2 C 9.82 g/m*3 12.2 C 0 km/h
267 18-06-2010 05:14:03 12.2 C 9.82 g/m*3 12.2 C 0 km/h
268 18-06-2010 05:26:03 12.1 C 9.76 g/m*3 12.1 C 0 km/h
269 18-06-2010 05:38:03 12 C 9.7 g/m*3 12 C 0 km/h
270 18-06-2010 05:50:03 12 C 9.7 g/m*3 12 C 0 km/h
271 18-06-2010 06:02:03 12 C 9.7 g/m*3 12 C 0 km/h
272 18-06-2010 06:14:03 12.1 C 9.76 g/m*3 12.1 C 0 km/h
273 18-06-2010 06:26:03 12.2 C 9.82 g/m*3 12.2 C 0 km/h
274 18-06-2010 06:38:03 12.2 C 9.82 g/m*3 12.2 C 0 km/h
275 18-06-2010 06:50:04 12.4 C 9.83 g/m*3 12.4 C 0 km/h
Sensor: Nr:Datum:Temp:Abs-Feuchte:Windchill:Wind:
Aussen-T/F 276 18-06-2010 07:02:02 12.5 C 9.89 g/m*3 12.5 C 0 km/h
277 18-06-2010 07:14:02 12.7 C 9.91 g/m*3 12.7 C 0 km/h
278 18-06-2010 07:26:02 12.8 C 9.86 g/m*3 12.8 C 0 km/h
279 18-06-2010 07:38:02 12.8 C 9.86 g/m*3 12.8 C 0 km/h
280 18-06-2010 07:50:02 12.9 C 9.81 g/m*3 12.9 C 0 km/h
281 18-06-2010 08:02:02 13.1 C 9.7 g/m*3 13.1 C 0 km/h
282 18-06-2010 08:14:02 13.4 C 9.76 g/m*3 13.4 C 0 km/h
283 18-06-2010 08:26:02 13.5 C 9.83 g/m*3 13.5 C 0 km/h
284 18-06-2010 08:38:02 13.8 C 9.89 g/m*3 13.8 C 0 km/h
285 18-06-2010 08:50:02 14.4 C 10.01 g/m*3 14.4 C 0 km/h
286 18-06-2010 09:02:02 14.8 C 9.88 g/m*3 14.8 C 0 km/h
287 18-06-2010 09:14:02 15 C 9.49 g/m*3 15 C 0 km/h
288 18-06-2010 09:26:02 15.5 C 9.78 g/m*3 15.5 C 0 km/h
289 18-06-2010 09:38:02 15.7 C 9.77 g/m*3 15.7 C 0 km/h
290 18-06-2010 09:50:02 16.4 C 9.77 g/m*3 16.4 C 0 km/h
291 18-06-2010 10:02:03 16.5 C 9.27 g/m*3 16.5 C 0 km/h
292 18-06-2010 10:14:03 16.6 C 9.46 g/m*3 16.6 C 0 km/h
293 18-06-2010 10:26:02 16.3 C 9.43 g/m*3 16.3 C 0 km/h
294 18-06-2010 10:38:02 17 C 9.55 g/m*3 17 C 0 km/h
295 18-06-2010 10:50:02 16.4 C 8.93 g/m*3 16.4 C 0 km/h
296 18-06-2010 11:02:02 16.2 C 9.1 g/m*3 16.2 C 0 km/h
297 18-06-2010 11:14:02 15.9 C 9.07 g/m*3 15.9 C 0 km/h
298 18-06-2010 11:26:01 16.3 C 9.02 g/m*3 16.3 C 0 km/h
299 18-06-2010 11:38:02 16.6 C 8.9 g/m*3 16.6 C 0 km/h
300 18-06-2010 11:50:02 15.9 C 8.53 g/m*3 15.9 C 0 km/h
Sensor: Nr:Datum:Temp:Abs-Feuchte:Windchill:Wind:
Aussen-T/F 301 18-06-2010 12:02:02 15.9 C 8.94 g/m*3 15.9 C 0 km/h
302 18-06-2010 12:14:02 15.5 C 8.59 g/m*3 15.5 C 0 km/h
303 18-06-2010 12:26:01 15.3 C 8.88 g/m*3 15.3 C 0 km/h
304 18-06-2010 12:38:02 15 C 8.72 g/m*3 15 C 0 km/h
305 18-06-2010 12:50:02 15.6 C 8.91 g/m*3 15.6 C 0 km/h
306 18-06-2010 13:02:02 15.7 C 8.7 g/m*3 15.7 C 0 km/h
307 18-06-2010 13:14:03 16.3 C 8.6 g/m*3 16.3 C 0 km/h
308 18-06-2010 13:26:01 16.1 C 8.64 g/m*3 16.1 C 0 km/h
309 18-06-2010 13:38:02 15.8 C 8.48 g/m*3 15.8 C 0 km/h
310 18-06-2010 13:50:02 15.3 C 8.49 g/m*3 15.3 C 0 km/h
311 18-06-2010 14:02:02 15.3 C 8.49 g/m*3 15.3 C 0 km/h
312 18-06-2010 14:14:02 14.9 C 8.54 g/m*3 14.9 C 0 km/h
313 18-06-2010 14:26:01 14.7 C 8.44 g/m*3 14.7 C 0 km/h
314 18-06-2010 14:38:02 14.5 C 8.46 g/m*3 14.5 C 0 km/h
315 18-06-2010 14:50:02 14.9 C 8.54 g/m*3 14.9 C 0 km/h
316 18-06-2010 15:02:02 15.4 C 8.54 g/m*3 15.4 C 0 km/h
317 18-06-2010 15:14:03 14.5 C 8.33 g/m*3 14.5 C 0 km/h
318 18-06-2010 15:26:02 14.9 C 8.54 g/m*3 14.9 C 0 km/h
319 18-06-2010 15:38:02 15.2 C 8.44 g/m*3 15.2 C 0 km/h
320 18-06-2010 15:50:02 14.7 C 8.18 g/m*3 14.7 C 0 km/h
321 18-06-2010 16:02:03 14.8 C 8.49 g/m*3 14.8 C 0 km/h
322 18-06-2010 16:14:03 14.7 C 8.44 g/m*3 14.7 C 0 km/h
323 18-06-2010 16:26:03 15 C 8.33 g/m*3 15 C 0 km/h
324 18-06-2010 16:38:02 15.6 C 8.38 g/m*3 15.6 C 0 km/h
325 18-06-2010 16:50:01 16.8 C 7.86 g/m*3 16.8 C 0 km/h
Sensor: Nr:Datum:Temp:Abs-Feuchte:Windchill:Wind:
Aussen-T/F 326 18-06-2010 17:02:02 17.9 C 7.94 g/m*3 17.9 C 0 km/h
327 18-06-2010 17:14:02 19.1 C 7.21 g/m*3 19.1 C 0 km/h
328 18-06-2010 17:26:01 19.2 C 6.93 g/m*3 19.2 C 0 km/h
329 18-06-2010 17:38:02 19.8 C 7.34 g/m*3 19.8 C 0 km/h
330 18-06-2010 17:50:02 19.8 C 6.83 g/m*3 19.8 C 0 km/h
331 18-06-2010 18:02:03 21 C 6.96 g/m*3 21 C 0 km/h
332 18-06-2010 18:14:03 20.8 C 6.88 g/m*3 20.8 C 0 km/h
333 18-06-2010 18:26:02 21.5 C 6.98 g/m*3 21.5 C 0 km/h
334 18-06-2010 18:38:02 21.8 C 6.91 g/m*3 21.8 C 0 km/h
335 18-06-2010 18:50:02 22.2 C 6.87 g/m*3 22.2 C 0 km/h
336 18-06-2010 19:02:02 20.8 C 6.7 g/m*3 20.8 C 0 km/h
337 18-06-2010 19:14:02 19.9 C 7.04 g/m*3 19.9 C 0 km/h
338 18-06-2010 19:26:02 19.1 C 7.21 g/m*3 19.1 C 0 km/h
339 18-06-2010 19:38:02 18.9 C 7.45 g/m*3 18.9 C 0 km/h
340 18-06-2010 19:50:02 18.9 C 7.61 g/m*3 18.9 C 0 km/h
341 18-06-2010 20:02:02 18.5 C 7.44 g/m*3 18.5 C 0 km/h
342 18-06-2010 20:14:02 18.1 C 7.42 g/m*3 18.1 C 0 km/h
343 18-06-2010 20:26:02 17.8 C 7.59 g/m*3 17.8 C 0 km/h
344 18-06-2010 20:38:02 17.5 C 7.75 g/m*3 17.5 C 0 km/h
345 18-06-2010 20:50:01 17.2 C 7.91 g/m*3 17.2 C 0 km/h
346 18-06-2010 21:02:02 16 C 8.72 g/m*3 16 C 0 km/h
347 18-06-2010 21:14:02 15 C 9.36 g/m*3 15 C 0 km/h
348 18-06-2010 21:26:01 14.8 C 9.75 g/m*3 14.8 C 0 km/h
349 18-06-2010 21:38:01 14.7 C 9.82 g/m*3 14.7 C 0 km/h
350 18-06-2010 21:50:01 14.6 C 9.89 g/m*3 14.6 C 0 km/h
Sensor: Nr:Datum:Temp:Abs-Feuchte:Windchill:Wind:
Aussen-T/F 351 18-06-2010 22:02:01 14.7 C 9.82 g/m*3 14.7 C 0 km/h
352 18-06-2010 22:14:01 14.7 C 9.57 g/m*3 14.7 C 0 km/h
353 18-06-2010 22:26:02 14.8 C 9.5 g/m*3 14.8 C 0 km/h
354 18-06-2010 22:38:01 15 C 9.49 g/m*3 15 C 0 km/h
355 18-06-2010 22:50:02 15.1 C 9.29 g/m*3 15.1 C 0 km/h
356 18-06-2010 23:02:01 15 C 9.23 g/m*3 15 C 0 km/h
357 18-06-2010 23:14:01 14.8 C 8.61 g/m*3 14.8 C 0 km/h
358 18-06-2010 23:27:04 14.8 C 6.84 g/m*3 14.8 C 0 km/h
359 18-06-2010 23:39:04 14.7 C 6.55 g/m*3 14.7 C 0 km/h
360 18-06-2010 23:51:04 14.7 C 6.42 g/m*3 14.7 C 0 km/h
361 19-06-2010 00:03:04 14.6 C 6.63 g/m*3 14.6 C 0 km/h
362 19-06-2010 00:15:04 14.5 C 6.72 g/m*3 14.5 C 0 km/h
363 19-06-2010 00:27:04 14.4 C 6.92 g/m*3 14.4 C 0 km/h
364 19-06-2010 00:39:04 14.3 C 7.13 g/m*3 14.3 C 0 km/h
365 19-06-2010 00:51:04 14.2 C 7.08 g/m*3 14.2 C 0 km/h
366 19-06-2010 01:03:04 14 C 7.12 g/m*3 14 C 0 km/h
367 19-06-2010 01:15:04 13.8 C 7.27 g/m*3 13.8 C 0 km/h
368 19-06-2010 01:27:05 13.6 C 7.18 g/m*3 13.6 C 0 km/h
369 19-06-2010 01:39:05 13.4 C 7.09 g/m*3 13.4 C 0 km/h
370 19-06-2010 01:51:05 13.2 C 7 g/m*3 13.2 C 0 km/h
371 19-06-2010 02:03:05 12.8 C 6.94 g/m*3 12.8 C 0 km/h
372 19-06-2010 02:15:05 12.7 C 6.9 g/m*3 12.7 C 0 km/h
373 19-06-2010 02:27:05 12.5 C 6.82 g/m*3 12.5 C 0 km/h
374 19-06-2010 02:39:05 12.4 C 6.77 g/m*3 12.4 C 0 km/h
375 19-06-2010 02:51:05 12.4 C 6.77 g/m*3 12.4 C 0 km/h
Sensor: Nr:Datum:Temp:Abs-Feuchte:Windchill:Wind:
Aussen-T/F 376 19-06-2010 03:03:05 12.5 C 6.82 g/m*3 12.5 C 0 km/h
377 19-06-2010 03:15:05 12.5 C 6.71 g/m*3 12.5 C 0 km/h
378 19-06-2010 03:27:05 12.1 C 6.54 g/m*3 12.1 C 0 km/h
379 19-06-2010 03:39:05 11.8 C 6.74 g/m*3 11.8 C 0 km/h
380 19-06-2010 03:51:05 11.5 C 6.61 g/m*3 11.5 C 0 km/h
381 19-06-2010 04:03:05 11.2 C 6.49 g/m*3 11.2 C 0 km/h
382 19-06-2010 04:15:05 11 C 6.51 g/m*3 11 C 0 km/h
383 19-06-2010 04:27:05 10.9 C 6.56 g/m*3 10.9 C 0 km/h
384 19-06-2010 04:39:05 10.7 C 6.58 g/m*3 10.7 C 0 km/h
385 19-06-2010 04:51:05 10.9 C 6.66 g/m*3 10.9 C 0 km/h
386 19-06-2010 05:03:05 11 C 6.61 g/m*3 11 C 0 km/h
387 19-06-2010 05:15:05 11.1 C 6.55 g/m*3 11.1 C 0 km/h
388 19-06-2010 05:27:06 11.2 C 6.59 g/m*3 11.2 C 0 km/h
389 19-06-2010 05:39:06 11.2 C 6.59 g/m*3 11.2 C 0 km/h
390 19-06-2010 05:51:06 11.2 C 6.59 g/m*3 11.2 C 0 km/h
391 19-06-2010 06:03:06 11.4 C 6.77 g/m*3 11.4 C 0 km/h
392 19-06-2010 06:15:06 11.4 C 6.77 g/m*3 11.4 C 0 km/h
393 19-06-2010 06:27:06 11.5 C 6.82 g/m*3 11.5 C 0 km/h
394 19-06-2010 06:39:06 11.6 C 6.86 g/m*3 11.6 C 0 km/h
395 19-06-2010 06:51:06 11.6 C 6.86 g/m*3 11.6 C 0 km/h
396 19-06-2010 07:03:06 11.8 C 6.84 g/m*3 11.8 C 0 km/h
397 19-06-2010 07:15:06 11.8 C 6.84 g/m*3 11.8 C 0 km/h
398 19-06-2010 07:27:06 12 C 6.71 g/m*3 12 C 0 km/h
399 19-06-2010 07:39:06 11.9 C 6.57 g/m*3 11.9 C 0 km/h
400 19-06-2010 07:51:06 11.8 C 6.53 g/m*3 11.8 C 0 km/h
Sensor: Nr:Datum:Temp:Abs-Feuchte:Windchill:Wind:
Aussen-T/F 401 19-06-2010 08:03:06 12 C 6.5 g/m*3 12 C 0 km/h
402 19-06-2010 08:15:03 12 C 6.39 g/m*3 12 C 0 km/h
403 19-06-2010 08:27:03 12 C 6.5 g/m*3 12 C 0 km/h
404 19-06-2010 08:39:03 11.9 C 6.46 g/m*3 11.9 C 0 km/h
405 19-06-2010 08:51:02 11.9 C 6.46 g/m*3 11.9 C 0 km/h
406 19-06-2010 09:03:02 11.8 C 6.63 g/m*3 11.8 C 0 km/h
407 19-06-2010 09:15:03 12.1 C 6.97 g/m*3 12.1 C 0 km/h
408 19-06-2010 09:27:03 12.8 C 6.61 g/m*3 12.8 C 0 km/h
409 19-06-2010 09:39:02 12.9 C 6.42 g/m*3 12.9 C 0 km/h
410 19-06-2010 09:51:02 12.8 C 6.38 g/m*3 12.8 C 0 km/h
411 19-06-2010 10:03:02 12.9 C 6.31 g/m*3 12.9 C 0 km/h
412 19-06-2010 10:15:02 11.6 C 6.65 g/m*3 11.6 C 0 km/h
413 19-06-2010 10:27:02 11.8 C 6.95 g/m*3 11.8 C 0 km/h
414 19-06-2010 10:39:02 12.4 C 6.77 g/m*3 12.4 C 0 km/h
415 19-06-2010 10:51:02 12.4 C 6.45 g/m*3 12.4 C 0 km/h
416 19-06-2010 11:03:02 12.9 C 6.31 g/m*3 12.9 C 0 km/h
417 19-06-2010 11:15:02 13.6 C 6.47 g/m*3 13.6 C 0 km/h
418 19-06-2010 11:27:02 13.8 C 5.96 g/m*3 13.8 C 0 km/h
419 19-06-2010 11:39:02 15.8 C 6.19 g/m*3 15.8 C 0 km/h
420 19-06-2010 11:51:02 17.6 C 6.15 g/m*3 17.6 C 0 km/h
421 19-06-2010 12:03:02 16.6 C 5.65 g/m*3 16.6 C 0 km/h
422 19-06-2010 12:15:02 18.1 C 5.41 g/m*3 18.1 C 0 km/h
423 19-06-2010 12:27:02 16.9 C 5.03 g/m*3 16.9 C 0 km/h
424 19-06-2010 12:39:01 15.5 C 5.29 g/m*3 15.5 C 0 km/h
425 19-06-2010 12:51:02 14.3 C 5.41 g/m*3 14.3 C 0 km/h
Sensor: Nr:Datum:Temp:Abs-Feuchte:Windchill:Wind:
Aussen-T/F 426 19-06-2010 13:03:01 13.4 C 6.16 g/m*3 13.4 C 0 km/h
427 19-06-2010 13:15:02 15 C 6.28 g/m*3 15 C 0 km/h
428 19-06-2010 13:27:02 17.3 C 5.89 g/m*3 17.3 C 0 km/h
429 19-06-2010 13:39:01 20.4 C 5.48 g/m*3 20.4 C 0 km/h
430 19-06-2010 13:51:02 18.7 C 5.44 g/m*3 18.7 C 0 km/h
431 19-06-2010 14:03:02 19.3 C 5.31 g/m*3 19.3 C 0 km/h
432 19-06-2010 14:15:02 19.3 C 4.98 g/m*3 19.3 C 0 km/h
433 19-06-2010 14:27:02 18.3 C 4.69 g/m*3 18.3 C 0 km/h
434 19-06-2010 14:39:02 16.8 C 5 g/m*3 16.8 C 0 km/h
435 19-06-2010 14:51:02 17.6 C 5.1 g/m*3 17.6 C 0 km/h
436 19-06-2010 15:03:01 18.6 C 4.77 g/m*3 18.6 C 0 km/h
437 19-06-2010 15:15:01 18.7 C 4.8 g/m*3 18.7 C 0 km/h
438 19-06-2010 15:27:01 18.7 C 4.96 g/m*3 18.7 C 0 km/h
439 19-06-2010 15:39:02 17.4 C 4.74 g/m*3 17.4 C 0 km/h
440 19-06-2010 15:51:02 18.2 C 4.82 g/m*3 18.2 C 0 km/h
441 19-06-2010 16:03:02 17.9 C 4.73 g/m*3 17.9 C 0 km/h
442 19-06-2010 16:15:02 17.7 C 5.13 g/m*3 17.7 C 0 km/h
443 19-06-2010 16:27:02 17.9 C 5.04 g/m*3 17.9 C 0 km/h
444 19-06-2010 16:39:02 19.9 C 5.33 g/m*3 19.9 C 0 km/h
445 19-06-2010 16:51:02 20.2 C 4.55 g/m*3 20.2 C 0 km/h
446 19-06-2010 17:03:02 18.5 C 4.75 g/m*3 18.5 C 0 km/h
447 19-06-2010 17:15:02 18.2 C 5.13 g/m*3 18.2 C 0 km/h
448 19-06-2010 17:27:02 18 C 4.92 g/m*3 18 C 0 km/h
449 19-06-2010 17:39:02 16.8 C 5.15 g/m*3 16.8 C 0 km/h
450 19-06-2010 17:51:03 16.8 C 5.58 g/m*3 16.8 C 0 km/h
Sensor: Nr:Datum:Temp:Abs-Feuchte:Windchill:Wind:
Aussen-T/F 451 19-06-2010 18:03:03 16.7 C 5.26 g/m*3 16.7 C 0 km/h
452 19-06-2010 18:15:02 16.9 C 5.47 g/m*3 16.9 C 0 km/h
453 19-06-2010 18:27:02 16 C 5.59 g/m*3 16 C 0 km/h
454 19-06-2010 18:39:02 16.3 C 5.55 g/m*3 16.3 C 0 km/h
455 19-06-2010 18:51:01 15.8 C 5.52 g/m*3 15.8 C 0 km/h
456 19-06-2010 19:03:03 17.4 C 5.48 g/m*3 17.4 C 0 km/h
457 19-06-2010 19:15:01 17.2 C 5.13 g/m*3 17.2 C 0 km/h
458 19-06-2010 19:27:01 16.6 C 5.09 g/m*3 16.6 C 0 km/h
459 19-06-2010 19:39:02 16.1 C 5.35 g/m*3 16.1 C 0 km/h
460 19-06-2010 19:51:03 16.1 C 5.76 g/m*3 16.1 C 0 km/h
461 19-06-2010 20:03:03 15 C 5.26 g/m*3 15 C 0 km/h
462 19-06-2010 20:15:02 14.8 C 5.57 g/m*3 14.8 C 0 km/h
463 19-06-2010 20:27:03 14.8 C 5.83 g/m*3 14.8 C 0 km/h
464 19-06-2010 20:39:02 14.4 C 5.81 g/m*3 14.4 C 0 km/h
465 19-06-2010 20:51:01 14.5 C 6.09 g/m*3 14.5 C 0 km/h
466 19-06-2010 21:03:02 14.5 C 6.09 g/m*3 14.5 C 0 km/h
467 19-06-2010 21:15:02 14.3 C 6.02 g/m*3 14.3 C 0 km/h
468 19-06-2010 21:27:02 14.1 C 6.19 g/m*3 14.1 C 0 km/h
469 19-06-2010 21:39:02 14 C 6.27 g/m*3 14 C 0 km/h
470 19-06-2010 21:51:02 13.8 C 6.31 g/m*3 13.8 C 0 km/h
471 19-06-2010 22:03:04 13.6 C 6.24 g/m*3 13.6 C 0 km/h
472 19-06-2010 22:15:15 13.2 C 6.09 g/m*3 13.2 C 0 km/h
473 19-06-2010 22:27:15 12.8 C 5.94 g/m*3 12.8 C 0 km/h
474 19-06-2010 22:39:01 12.6 C 5.97 g/m*3 12.6 C 0 km/h
475 19-06-2010 22:51:02 12.4 C 6.12 g/m*3 12.4 C 0 km/h
Sensor: Nr:Datum:Temp:Abs-Feuchte:Windchill:Wind:
Aussen-T/F 476 19-06-2010 23:03:01 11.9 C 6.14 g/m*3 11.9 C 0 km/h
477 19-06-2010 23:15:02 12.2 C 6.26 g/m*3 12.2 C 0 km/h
478 19-06-2010 23:27:02 12.4 C 6.23 g/m*3 12.4 C 0 km/h
479 19-06-2010 23:39:01 12.1 C 6.22 g/m*3 12.1 C 0 km/h
480 19-06-2010 23:51:02 11.8 C 6.31 g/m*3 11.8 C 0 km/h
481 20-06-2010 00:03:02 11.5 C 6.3 g/m*3 11.5 C 0 km/h
482 20-06-2010 00:15:02 11.2 C 6.28 g/m*3 11.2 C 0 km/h
483 20-06-2010 00:27:02 10.8 C 6.33 g/m*3 10.8 C 0 km/h
484 20-06-2010 00:39:02 10.6 C 6.44 g/m*3 10.6 C 0 km/h
485 20-06-2010 00:51:02 10.5 C 6.4 g/m*3 10.5 C 0 km/h
486 20-06-2010 01:03:01 10.6 C 6.15 g/m*3 10.6 C 0 km/h
487 20-06-2010 01:15:02 10.6 C 5.95 g/m*3 10.6 C 0 km/h
488 20-06-2010 01:27:02 10.5 C 5.92 g/m*3 10.5 C 0 km/h
489 20-06-2010 01:40:01 10.4 C 5.88 g/m*3 10.4 C 0 km/h
490 20-06-2010 01:52:01 10.2 C 5.9 g/m*3 10.2 C 0 km/h
491 20-06-2010 02:04:01 10.1 C 5.96 g/m*3 10.1 C 0 km/h
492 20-06-2010 02:16:01 9.8 C 6.03 g/m*3 9.8 C 0 km/h
493 20-06-2010 02:28:01 9.6 C 6.05 g/m*3 9.6 C 0 km/h
494 20-06-2010 02:40:01 9.4 C 6.06 g/m*3 9.4 C 0 km/h
495 20-06-2010 02:52:01 9.3 C 6.2 g/m*3 9.3 C 0 km/h
496 20-06-2010 03:04:01 9.3 C 6.38 g/m*3 9.3 C 0 km/h
497 20-06-2010 03:16:01 9.5 C 6.46 g/m*3 9.5 C 0 km/h
498 20-06-2010 03:28:02 9.6 C 6.6 g/m*3 9.6 C 0 km/h
499 20-06-2010 03:40:02 9.5 C 6.74 g/m*3 9.5 C 0 km/h
500 20-06-2010 03:52:02 9.4 C 6.69 g/m*3 9.4 C 0 km/h
Sensor: Nr:Datum:Temp:Abs-Feuchte:Windchill:Wind:
Aussen-T/F 501 20-06-2010 04:04:02 9.1 C 6.74 g/m*3 9.1 C 0 km/h
502 20-06-2010 04:16:02 9.1 C 6.92 g/m*3 9.1 C 0 km/h
503 20-06-2010 04:28:02 9.2 C 7.05 g/m*3 9.2 C 0 km/h
504 20-06-2010 04:40:02 9.4 C 7.15 g/m*3 9.4 C 0 km/h
505 20-06-2010 04:52:02 9.2 C 7.05 g/m*3 9.2 C 0 km/h
506 20-06-2010 05:04:02 9.2 C 7.05 g/m*3 9.2 C 0 km/h
507 20-06-2010 05:16:02 9.2 C 7.05 g/m*3 9.2 C 0 km/h
508 20-06-2010 05:28:02 9.3 C 7.1 g/m*3 9.3 C 0 km/h
509 20-06-2010 05:40:02 9.4 C 7.15 g/m*3 9.4 C 0 km/h
510 20-06-2010 05:52:02 9.6 C 7.24 g/m*3 9.6 C 0 km/h
511 20-06-2010 06:04:02 9.6 C 7.24 g/m*3 9.6 C 0 km/h
512 20-06-2010 06:16:02 9.7 C 7.28 g/m*3 9.7 C 0 km/h
513 20-06-2010 06:28:02 10.1 C 7.28 g/m*3 10.1 C 0 km/h
514 20-06-2010 06:40:02 10.4 C 7.42 g/m*3 10.4 C 0 km/h
515 20-06-2010 06:52:02 10.6 C 7.32 g/m*3 10.6 C 0 km/h
516 20-06-2010 07:04:02 10.7 C 7.17 g/m*3 10.7 C 0 km/h
517 20-06-2010 07:16:02 10.7 C 7.17 g/m*3 10.7 C 0 km/h
518 20-06-2010 07:28:02 10.4 C 7.32 g/m*3 10.4 C 0 km/h
519 20-06-2010 07:40:02 10.2 C 7.52 g/m*3 10.2 C 0 km/h
520 20-06-2010 07:52:02 10.2 C 7.71 g/m*3 10.2 C 0 km/h
521 20-06-2010 08:04:01 10.3 C 7.85 g/m*3 10.3 C 0 km/h
522 20-06-2010 08:16:02 10.5 C 8.05 g/m*3 10.5 C 0 km/h
523 20-06-2010 08:28:02 10.4 C 8 g/m*3 10.4 C 0 km/h
524 20-06-2010 08:40:01 10.9 C 8.36 g/m*3 10.9 C 0 km/h
525 20-06-2010 08:52:03 10.8 C 8.2 g/m*3 10.8 C 0 km/h
Sensor: Nr:Datum:Temp:Abs-Feuchte:Windchill:Wind:
Aussen-T/F 526 20-06-2010 09:04:02 11.4 C 8.21 g/m*3 11.4 C 0 km/h
527 20-06-2010 09:16:03 12.4 C 8.52 g/m*3 12.4 C 0 km/h
528 20-06-2010 09:28:03 12.5 C 7.92 g/m*3 12.5 C 0 km/h
529 20-06-2010 09:40:02 13 C 7.83 g/m*3 13 C 0 km/h
530 20-06-2010 09:52:02 13.1 C 7.53 g/m*3 13.1 C 0 km/h
531 20-06-2010 10:04:01 13.6 C 7.77 g/m*3 13.6 C 0 km/h
532 20-06-2010 10:16:02 14 C 7.48 g/m*3 14 C 0 km/h
533 20-06-2010 10:28:02 13.7 C 6.99 g/m*3 13.7 C 0 km/h
534 20-06-2010 10:40:02 13.3 C 7.05 g/m*3 13.3 C 0 km/h
535 20-06-2010 10:52:02 13.1 C 6.96 g/m*3 13.1 C 0 km/h
536 20-06-2010 11:04:02 13 C 6.92 g/m*3 13 C 0 km/h
537 20-06-2010 11:16:01 12.6 C 7.08 g/m*3 12.6 C 0 km/h
538 20-06-2010 11:28:01 13.3 C 7.05 g/m*3 13.3 C 0 km/h
539 20-06-2010 11:40:02 14 C 7 g/m*3 14 C 0 km/h
540 20-06-2010 11:52:02 14.3 C 6.63 g/m*3 14.3 C 0 km/h
541 20-06-2010 12:04:02 14.4 C 6.55 g/m*3 14.4 C 0 km/h
542 20-06-2010 12:16:02 14.9 C 6.75 g/m*3 14.9 C 0 km/h
543 20-06-2010 12:28:02 15.3 C 6.53 g/m*3 15.3 C 0 km/h
544 20-06-2010 12:40:02 16.1 C 6.44 g/m*3 16.1 C 0 km/h
545 20-06-2010 12:52:01 15.6 C 6.25 g/m*3 15.6 C 0 km/h
546 20-06-2010 13:04:02 15.3 C 6.53 g/m*3 15.3 C 0 km/h
547 20-06-2010 13:16:01 15.6 C 6.65 g/m*3 15.6 C 0 km/h
548 20-06-2010 13:28:01 15.8 C 6.46 g/m*3 15.8 C 0 km/h
549 20-06-2010 13:40:01 16.9 C 6.33 g/m*3 16.9 C 0 km/h
550 20-06-2010 13:52:01 18.2 C 5.91 g/m*3 18.2 C 0 km/h
Sensor: Nr:Datum:Temp:Abs-Feuchte:Windchill:Wind:
Aussen-T/F 551 20-06-2010 14:04:01 16.9 C 5.47 g/m*3 16.9 C 0 km/h
552 20-06-2010 14:16:02 15.7 C 5.89 g/m*3 15.7 C 0 km/h
553 20-06-2010 14:28:02 15.9 C 6.09 g/m*3 15.9 C 0 km/h
554 20-06-2010 14:40:01 17.4 C 6.22 g/m*3 17.4 C 0 km/h
555 20-06-2010 14:52:02 16.7 C 5.68 g/m*3 16.7 C 0 km/h
556 20-06-2010 15:04:02 17.2 C 5.71 g/m*3 17.2 C 0 km/h
557 20-06-2010 15:16:02 17.6 C 5.85 g/m*3 17.6 C 0 km/h
558 20-06-2010 15:28:02 17.7 C 6.04 g/m*3 17.7 C 0 km/h
559 20-06-2010 15:40:02 18.7 C 6.08 g/m*3 18.7 C 0 km/h
560 20-06-2010 15:52:02 18.1 C 5.72 g/m*3 18.1 C 0 km/h
561 20-06-2010 16:04:02 16.4 C 5.72 g/m*3 16.4 C 0 km/h
562 20-06-2010 16:16:02 16.4 C 5.72 g/m*3 16.4 C 0 km/h
563 20-06-2010 16:28:02 16.7 C 5.97 g/m*3 16.7 C 0 km/h
564 20-06-2010 16:40:03 17.1 C 5.68 g/m*3 17.1 C 0 km/h
565 20-06-2010 16:52:02 17.1 C 5.39 g/m*3 17.1 C 0 km/h
566 20-06-2010 17:04:01 17 C 5.35 g/m*3 17 C 0 km/h
567 20-06-2010 17:16:02 16 C 5.72 g/m*3 16 C 0 km/h
568 20-06-2010 17:28:02 16.2 C 5.79 g/m*3 16.2 C 0 km/h
569 20-06-2010 17:40:02 16 C 5.86 g/m*3 16 C 0 km/h
570 20-06-2010 17:52:02 16.4 C 6.14 g/m*3 16.4 C 0 km/h
571 20-06-2010 18:04:03 16.5 C 6.32 g/m*3 16.5 C 0 km/h
572 20-06-2010 18:16:02 16.2 C 6.34 g/m*3 16.2 C 0 km/h
573 20-06-2010 18:28:02 16.4 C 6.28 g/m*3 16.4 C 0 km/h
574 20-06-2010 18:40:02 16.3 C 6.24 g/m*3 16.3 C 0 km/h
575 20-06-2010 18:52:02 16.2 C 6.07 g/m*3 16.2 C 0 km/h
Sensor: Nr:Datum:Temp:Abs-Feuchte:Windchill:Wind:
Aussen-T/F 576 20-06-2010 19:04:02 15.9 C 5.96 g/m*3 15.9 C 0 km/h
577 20-06-2010 19:16:01 15.7 C 5.89 g/m*3 15.7 C 0 km/h
578 20-06-2010 19:28:01 15.4 C 5.91 g/m*3 15.4 C 0 km/h
579 20-06-2010 19:40:02 15.6 C 6.12 g/m*3 15.6 C 0 km/h
580 20-06-2010 19:52:02 15.8 C 6.19 g/m*3 15.8 C 0 km/h
581 20-06-2010 20:04:02 15.6 C 6.25 g/m*3 15.6 C 0 km/h
582 20-06-2010 20:16:01 15.3 C 6.01 g/m*3 15.3 C 0 km/h
583 20-06-2010 20:28:01 15.2 C 6.1 g/m*3 15.2 C 0 km/h
584 20-06-2010 20:40:02 15.1 C 6.19 g/m*3 15.1 C 0 km/h
585 20-06-2010 20:52:02 15 C 6.28 g/m*3 15 C 0 km/h
586 20-06-2010 21:04:02 14.8 C 6.59 g/m*3 14.8 C 0 km/h
587 20-06-2010 21:16:01 14.7 C 6.55 g/m*3 14.7 C 0 km/h
588 20-06-2010 21:28:01 14.6 C 6.63 g/m*3 14.6 C 0 km/h
589 20-06-2010 21:40:02 14.5 C 6.84 g/m*3 14.5 C 0 km/h
590 20-06-2010 21:52:02 14.3 C 6.76 g/m*3 14.3 C 0 km/h
591 20-06-2010 22:04:02 14.2 C 6.84 g/m*3 14.2 C 0 km/h
592 20-06-2010 22:17:02 14 C 6.75 g/m*3 14 C 0 km/h
593 20-06-2010 22:29:02 13.8 C 6.91 g/m*3 13.8 C 0 km/h
594 20-06-2010 22:41:02 13.5 C 6.9 g/m*3 13.5 C 0 km/h
595 20-06-2010 22:53:02 13.4 C 6.97 g/m*3 13.4 C 0 km/h
596 20-06-2010 23:05:02 13.2 C 6.89 g/m*3 13.2 C 0 km/h
597 20-06-2010 23:17:02 13 C 6.92 g/m*3 13 C 0 km/h
598 20-06-2010 23:29:02 12.6 C 6.97 g/m*3 12.6 C 0 km/h
599 20-06-2010 23:41:02 12.3 C 6.84 g/m*3 12.3 C 0 km/h
600 20-06-2010 23:53:02 12.1 C 6.97 g/m*3 12.1 C 0 km/h
Sensor: Nr:Datum:Temp:Abs-Feuchte:Windchill:Wind:
Aussen-T/F 601 21-06-2010 00:05:02 11.9 C 7.1 g/m*3 11.9 C 0 km/h
602 21-06-2010 00:17:02 11.8 C 7.05 g/m*3 11.8 C 0 km/h
603 21-06-2010 00:29:02 11.4 C 6.98 g/m*3 11.4 C 0 km/h
604 21-06-2010 00:41:02 11.2 C 7.1 g/m*3 11.2 C 0 km/h
605 21-06-2010 00:53:03 11.2 C 7.1 g/m*3 11.2 C 0 km/h
606 21-06-2010 01:05:03 11.1 C 6.95 g/m*3 11.1 C 0 km/h
607 21-06-2010 01:17:03 11.1 C 7.05 g/m*3 11.1 C 0 km/h
608 21-06-2010 01:29:03 11 C 7.01 g/m*3 11 C 0 km/h
609 21-06-2010 01:41:03 10.8 C 7.02 g/m*3 10.8 C 0 km/h
610 21-06-2010 01:53:03 10.7 C 7.07 g/m*3 10.7 C 0 km/h
611 21-06-2010 02:05:03 10.5 C 6.98 g/m*3 10.5 C 0 km/h
612 21-06-2010 02:17:03 10.4 C 7.04 g/m*3 10.4 C 0 km/h
613 21-06-2010 02:29:03 10.1 C 6.9 g/m*3 10.1 C 0 km/h
614 21-06-2010 02:41:03 10.2 C 7.04 g/m*3 10.2 C 0 km/h
615 21-06-2010 02:53:03 10.2 C 6.95 g/m*3 10.2 C 0 km/h
616 21-06-2010 03:05:03 10 C 6.86 g/m*3 10 C 0 km/h
617 21-06-2010 03:17:03 9.8 C 6.87 g/m*3 9.8 C 0 km/h
618 21-06-2010 03:29:03 9.6 C 6.78 g/m*3 9.6 C 0 km/h
619 21-06-2010 03:41:03 9.5 C 6.83 g/m*3 9.5 C 0 km/h
620 21-06-2010 03:53:03 9.3 C 6.74 g/m*3 9.3 C 0 km/h
621 21-06-2010 04:05:03 9.1 C 6.74 g/m*3 9.1 C 0 km/h
622 21-06-2010 04:17:03 9.1 C 6.83 g/m*3 9.1 C 0 km/h
623 21-06-2010 04:29:03 9.2 C 6.97 g/m*3 9.2 C 0 km/h
624 21-06-2010 04:41:03 9.4 C 6.96 g/m*3 9.4 C 0 km/h
625 21-06-2010 04:53:03 9 C 6.79 g/m*3 9 C 0 km/h
Sensor: Nr:Datum:Temp:Abs-Feuchte:Windchill:Wind:
Aussen-T/F 626 21-06-2010 05:05:04 8.8 C 6.88 g/m*3 8.8 C 0 km/h
627 21-06-2010 05:17:04 8.7 C 6.83 g/m*3 8.7 C 0 km/h
628 21-06-2010 05:29:04 8.7 C 6.92 g/m*3 8.7 C 0 km/h
629 21-06-2010 05:41:04 8.6 C 6.87 g/m*3 8.6 C 0 km/h
630 21-06-2010 05:53:04 8.6 C 6.96 g/m*3 8.6 C 0 km/h
631 21-06-2010 06:05:04 8.5 C 7 g/m*3 8.5 C 0 km/h
632 21-06-2010 06:17:04 8.5 C 7 g/m*3 8.5 C 0 km/h
633 21-06-2010 06:29:04 8.6 C 7.13 g/m*3 8.6 C 0 km/h
634 21-06-2010 06:41:04 8.6 C 7.22 g/m*3 8.6 C 0 km/h
635 21-06-2010 06:53:02 8.9 C 7.36 g/m*3 8.9 C 0 km/h
636 21-06-2010 07:05:03 9.1 C 7.36 g/m*3 9.1 C 0 km/h
637 21-06-2010 07:17:03 9.5 C 7.46 g/m*3 9.5 C 0 km/h
638 21-06-2010 07:29:03 9.8 C 7.33 g/m*3 9.8 C 0 km/h
639 21-06-2010 07:41:03 10.6 C 7.22 g/m*3 10.6 C 0 km/h
640 21-06-2010 07:53:02 11.5 C 7.23 g/m*3 11.5 C 0 km/h
641 21-06-2010 08:05:02 12.1 C 7.18 g/m*3 12.1 C 0 km/h
642 21-06-2010 08:17:02 12.3 C 6.95 g/m*3 12.3 C 0 km/h
643 21-06-2010 08:29:02 12.4 C 6.77 g/m*3 12.4 C 0 km/h
644 21-06-2010 08:41:02 12.7 C 6.9 g/m*3 12.7 C 0 km/h
645 21-06-2010 08:53:02 13.2 C 6.77 g/m*3 13.2 C 0 km/h
646 21-06-2010 09:05:01 13.4 C 6.63 g/m*3 13.4 C 0 km/h
647 21-06-2010 09:17:02 13.4 C 6.16 g/m*3 13.4 C 0 km/h
648 21-06-2010 09:29:03 13.7 C 6.39 g/m*3 13.7 C 0 km/h
649 21-06-2010 09:41:01 14.2 C 5.86 g/m*3 14.2 C 0 km/h
650 21-06-2010 09:53:02 14 C 5.43 g/m*3 14 C 0 km/h
Sensor: Nr:Datum:Temp:Abs-Feuchte:Windchill:Wind:
Aussen-T/F 651 21-06-2010 10:05:01 13.9 C 5.39 g/m*3 13.9 C 0 km/h
652 21-06-2010 10:17:02 13.9 C 5.63 g/m*3 13.9 C 0 km/h
653 21-06-2010 10:29:02 13.5 C 6.08 g/m*3 13.5 C 0 km/h
654 21-06-2010 10:41:01 13.5 C 5.97 g/m*3 13.5 C 0 km/h
655 21-06-2010 10:53:02 14 C 5.55 g/m*3 14 C 0 km/h
656 21-06-2010 11:05:02 14.7 C 5.67 g/m*3 14.7 C 0 km/h
657 21-06-2010 11:17:02 14.7 C 5.16 g/m*3 14.7 C 0 km/h
658 21-06-2010 11:29:02 14.2 C 5.13 g/m*3 14.2 C 0 km/h
659 21-06-2010 11:41:02 14.4 C 5.44 g/m*3 14.4 C 0 km/h
660 21-06-2010 11:53:02 15.4 C 5.52 g/m*3 15.4 C 0 km/h
661 21-06-2010 12:05:01 16.3 C 5.27 g/m*3 16.3 C 0 km/h
662 21-06-2010 12:17:02 16.5 C 5.34 g/m*3 16.5 C 0 km/h
663 21-06-2010 12:29:02 16 C 5.18 g/m*3 16 C 0 km/h
664 21-06-2010 12:41:02 14.8 C 5.19 g/m*3 14.8 C 0 km/h
665 21-06-2010 12:53:01 15 C 5.39 g/m*3 15 C 0 km/h
666 21-06-2010 13:05:02 14.7 C 5.29 g/m*3 14.7 C 0 km/h
667 21-06-2010 13:17:01 15.2 C 5.19 g/m*3 15.2 C 0 km/h
668 21-06-2010 13:29:01 16 C 5.04 g/m*3 16 C 0 km/h
669 21-06-2010 13:41:02 18 C 5.07 g/m*3 18 C 0 km/h
670 21-06-2010 13:53:02 19.6 C 4.9 g/m*3 19.6 C 0 km/h
671 21-06-2010 14:05:02 19.3 C 4.81 g/m*3 19.3 C 0 km/h
672 21-06-2010 14:17:01 18.2 C 4.66 g/m*3 18.2 C 0 km/h
673 21-06-2010 14:29:01 18.7 C 4.48 g/m*3 18.7 C 0 km/h
674 21-06-2010 14:41:02 18.9 C 4.86 g/m*3 18.9 C 0 km/h
675 21-06-2010 14:53:02 18 C 4.61 g/m*3 18 C 0 km/h
Sensor: Nr:Datum:Temp:Abs-Feuchte:Windchill:Wind:
Aussen-T/F 676 21-06-2010 15:05:02 17.7 C 4.38 g/m*3 17.7 C 0 km/h
677 21-06-2010 15:17:02 18.4 C 4.88 g/m*3 18.4 C 0 km/h
678 21-06-2010 15:29:02 20 C 4.49 g/m*3 20 C 0 km/h
679 21-06-2010 15:41:02 18.7 C 4.8 g/m*3 18.7 C 0 km/h
680 21-06-2010 15:53:02 18.5 C 4.27 g/m*3 18.5 C 0 km/h
681 21-06-2010 16:05:02 19 C 4.56 g/m*3 19 C 0 km/h
682 21-06-2010 16:17:02 20 C 4.67 g/m*3 20 C 0 km/h
683 21-06-2010 16:29:02 21.2 C 4.63 g/m*3 21.2 C 0 km/h
684 21-06-2010 16:41:02 21 C 4.21 g/m*3 21 C 0 km/h
685 21-06-2010 16:53:02 22.6 C 4.42 g/m*3 22.6 C 0 km/h
686 21-06-2010 17:05:02 21 C 4.03 g/m*3 21 C 0 km/h
687 21-06-2010 17:17:03 20.6 C 4.47 g/m*3 20.6 C 0 km/h
688 21-06-2010 17:29:03 19.3 C 4.64 g/m*3 19.3 C 0 km/h
689 21-06-2010 17:41:02 18.7 C 4.8 g/m*3 18.7 C 0 km/h
690 21-06-2010 17:53:02 18.3 C 5 g/m*3 18.3 C 0 km/h
691 21-06-2010 18:05:02 18.4 C 5.03 g/m*3 18.4 C 0 km/h
692 21-06-2010 18:17:02 18.2 C 4.82 g/m*3 18.2 C 0 km/h
693 21-06-2010 18:29:02 18.4 C 5.03 g/m*3 18.4 C 0 km/h
694 21-06-2010 18:41:02 18.2 C 4.82 g/m*3 18.2 C 0 km/h
695 21-06-2010 18:53:02 18.4 C 5.03 g/m*3 18.4 C 0 km/h
696 21-06-2010 19:05:02 18.2 C 4.97 g/m*3 18.2 C 0 km/h
697 21-06-2010 19:17:02 17.6 C 5.1 g/m*3 17.6 C 0 km/h
698 21-06-2010 19:29:03 17.4 C 5.19 g/m*3 17.4 C 0 km/h
699 21-06-2010 19:41:02 17.3 C 5.3 g/m*3 17.3 C 0 km/h
700 21-06-2010 19:53:02 17.2 C 5.13 g/m*3 17.2 C 0 km/h
Sensor: Nr:Datum:Temp:Abs-Feuchte:Windchill:Wind:
Aussen-T/F 701 21-06-2010 20:05:01 17.2 C 5.86 g/m*3 17.2 C 0 km/h
702 21-06-2010 20:17:02 17.2 C 5.71 g/m*3 17.2 C 0 km/h
703 21-06-2010 20:29:02 16.9 C 6.33 g/m*3 16.9 C 0 km/h
704 21-06-2010 20:41:02 16.6 C 6.36 g/m*3 16.6 C 0 km/h
705 21-06-2010 20:53:01 16.2 C 6.48 g/m*3 16.2 C 0 km/h
706 21-06-2010 21:05:01 16 C 6.4 g/m*3 16 C 0 km/h
707 21-06-2010 21:17:02 15.6 C 6.25 g/m*3 15.6 C 0 km/h
708 21-06-2010 21:29:02 15.2 C 6.1 g/m*3 15.2 C 0 km/h
709 21-06-2010 21:41:01 14.9 C 6.25 g/m*3 14.9 C 0 km/h
710 21-06-2010 21:53:02 14.5 C 5.97 g/m*3 14.5 C 0 km/h
711 21-06-2010 22:05:02 14.2 C 6.11 g/m*3 14.2 C 0 km/h
712 21-06-2010 22:18:03 14 C 6.15 g/m*3 14 C 0 km/h
713 21-06-2010 22:30:03 13.7 C 6.16 g/m*3 13.7 C 0 km/h
714 21-06-2010 22:42:04 13.4 C 6.39 g/m*3 13.4 C 0 km/h
715 21-06-2010 22:54:04 13.4 C 6.28 g/m*3 13.4 C 0 km/h
716 21-06-2010 23:06:04 13.5 C 6.55 g/m*3 13.5 C 0 km/h
717 21-06-2010 23:18:04 13.4 C 6.51 g/m*3 13.4 C 0 km/h
718 21-06-2010 23:30:04 13.4 C 6.51 g/m*3 13.4 C 0 km/h
719 21-06-2010 23:42:04 13.2 C 6.43 g/m*3 13.2 C 0 km/h
720 21-06-2010 23:54:04 13.1 C 6.39 g/m*3 13.1 C 0 km/h
721 22-06-2010 00:06:04 12.8 C 6.5 g/m*3 12.8 C 0 km/h
722 22-06-2010 00:18:04 12.5 C 6.49 g/m*3 12.5 C 0 km/h
723 22-06-2010 00:30:04 12.2 C 6.58 g/m*3 12.2 C 0 km/h
724 22-06-2010 00:42:04 12.1 C 6.65 g/m*3 12.1 C 0 km/h
725 22-06-2010 00:54:04 12.1 C 6.86 g/m*3 12.1 C 0 km/h
Sensor: Nr:Datum:Temp:Abs-Feuchte:Windchill:Wind:
Aussen-T/F 726 22-06-2010 01:06:04 12.2 C 7.01 g/m*3 12.2 C 0 km/h
727 22-06-2010 01:18:04 12.2 C 7.01 g/m*3 12.2 C 0 km/h
728 22-06-2010 01:30:05 12.4 C 6.99 g/m*3 12.4 C 0 km/h
729 22-06-2010 01:42:05 12.2 C 7.01 g/m*3 12.2 C 0 km/h
730 22-06-2010 01:54:05 12.2 C 7.01 g/m*3 12.2 C 0 km/h
731 22-06-2010 02:06:05 12.1 C 6.97 g/m*3 12.1 C 0 km/h
732 22-06-2010 02:18:05 12.2 C 7.01 g/m*3 12.2 C 0 km/h
733 22-06-2010 02:30:05 12 C 7.03 g/m*3 12 C 0 km/h
734 22-06-2010 02:42:05 11.9 C 7.1 g/m*3 11.9 C 0 km/h
735 22-06-2010 02:54:05 11.9 C 7.2 g/m*3 11.9 C 0 km/h
736 22-06-2010 03:06:05 11.9 C 7.31 g/m*3 11.9 C 0 km/h
737 22-06-2010 03:18:05 11.8 C 7.26 g/m*3 11.8 C 0 km/h
738 22-06-2010 03:30:05 11.7 C 7.22 g/m*3 11.7 C 0 km/h
739 22-06-2010 03:42:05 11.8 C 7.26 g/m*3 11.8 C 0 km/h
740 22-06-2010 03:54:05 11.9 C 7.41 g/m*3 11.9 C 0 km/h
741 22-06-2010 04:06:05 11.5 C 7.33 g/m*3 11.5 C 0 km/h
742 22-06-2010 04:18:05 11.4 C 7.29 g/m*3 11.4 C 0 km/h
743 22-06-2010 04:30:05 11.5 C 7.44 g/m*3 11.5 C 0 km/h
744 22-06-2010 04:42:05 11.5 C 7.44 g/m*3 11.5 C 0 km/h
745 22-06-2010 04:54:05 11.5 C 7.44 g/m*3 11.5 C 0 km/h
746 22-06-2010 05:06:05 11.5 C 7.54 g/m*3 11.5 C 0 km/h
747 22-06-2010 05:18:05 11.4 C 7.49 g/m*3 11.4 C 0 km/h
748 22-06-2010 05:30:05 11.4 C 7.49 g/m*3 11.4 C 0 km/h
749 22-06-2010 05:42:05 11.5 C 7.54 g/m*3 11.5 C 0 km/h
750 22-06-2010 05:54:05 11.4 C 7.39 g/m*3 11.4 C 0 km/h
Sensor: Nr:Datum:Temp:Abs-Feuchte:Windchill:Wind:
Aussen-T/F 751 22-06-2010 06:06:06 11.5 C 7.54 g/m*3 11.5 C 0 km/h
752 22-06-2010 06:18:06 11.5 C 7.54 g/m*3 11.5 C 0 km/h
753 22-06-2010 06:30:06 11.6 C 7.69 g/m*3 11.6 C 0 km/h
754 22-06-2010 06:42:03 11.6 C 7.69 g/m*3 11.6 C 0 km/h
755 22-06-2010 06:54:02 11.7 C 7.64 g/m*3 11.7 C 0 km/h
756 22-06-2010 07:06:02 11.9 C 7.73 g/m*3 11.9 C 0 km/h
757 22-06-2010 07:18:02 12 C 7.67 g/m*3 12 C 0 km/h
758 22-06-2010 07:30:02 12.1 C 7.61 g/m*3 12.1 C 0 km/h
759 22-06-2010 07:42:02 12.4 C 7.65 g/m*3 12.4 C 0 km/h
760 22-06-2010 07:54:01 12.8 C 7.73 g/m*3 12.8 C 0 km/h
761 22-06-2010 08:06:02 13.1 C 7.65 g/m*3 13.1 C 0 km/h
762 22-06-2010 08:18:02 13 C 7.14 g/m*3 13 C 0 km/h
763 22-06-2010 08:30:02 12.9 C 7.44 g/m*3 12.9 C 0 km/h
764 22-06-2010 08:42:02 12.9 C 7.66 g/m*3 12.9 C 0 km/h
765 22-06-2010 08:54:02 13.1 C 7.53 g/m*3 13.1 C 0 km/h
766 22-06-2010 09:06:01 13.5 C 7.49 g/m*3 13.5 C 0 km/h
767 22-06-2010 09:18:02 14.2 C 7.45 g/m*3 14.2 C 0 km/h
768 22-06-2010 09:30:03 15.1 C 7.61 g/m*3 15.1 C 0 km/h
769 22-06-2010 09:42:01 15.8 C 7.4 g/m*3 15.8 C 0 km/h
770 22-06-2010 09:54:02 16.4 C 6.7 g/m*3 16.4 C 0 km/h
771 22-06-2010 10:06:01 17.3 C 6.19 g/m*3 17.3 C 0 km/h
772 22-06-2010 10:18:01 17.9 C 6.11 g/m*3 17.9 C 0 km/h
773 22-06-2010 10:30:01 18.7 C 6.56 g/m*3 18.7 C 0 km/h
774 22-06-2010 10:42:02 19.5 C 6.55 g/m*3 19.5 C 0 km/h
775 22-06-2010 10:54:02 20.2 C 6.47 g/m*3 20.2 C 0 km/h
Sensor: Nr:Datum:Temp:Abs-Feuchte:Windchill:Wind:
Aussen-T/F 776 22-06-2010 11:06:01 20.7 C 5.94 g/m*3 20.7 C 0 km/h
777 22-06-2010 11:18:02 20.1 C 6.08 g/m*3 20.1 C 0 km/h
778 22-06-2010 11:30:02 20.4 C 5.84 g/m*3 20.4 C 0 km/h
779 22-06-2010 11:42:02 20.4 C 5.66 g/m*3 20.4 C 0 km/h
780 22-06-2010 11:54:02 19.6 C 5.57 g/m*3 19.6 C 0 km/h
781 22-06-2010 12:06:03 21.4 C 6 g/m*3 21.4 C 0 km/h
782 22-06-2010 12:18:02 23.3 C 5.23 g/m*3 23.3 C 0 km/h
783 22-06-2010 12:30:02 20.7 C 5.4 g/m*3 20.7 C 0 km/h
784 22-06-2010 12:42:02 19.9 C 5.5 g/m*3 19.9 C 0 km/h
785 22-06-2010 12:54:01 20.1 C 5.21 g/m*3 20.1 C 0 km/h
786 22-06-2010 13:06:02 22.5 C 4.99 g/m*3 22.5 C 0 km/h
787 22-06-2010 13:18:01 20.4 C 5.31 g/m*3 20.4 C 0 km/h
788 22-06-2010 13:30:01 20.7 C 5.4 g/m*3 20.7 C 0 km/h
789 22-06-2010 13:42:01 22.1 C 5.47 g/m*3 22.1 C 0 km/h
790 22-06-2010 13:54:01 22.7 C 5.25 g/m*3 22.7 C 0 km/h
791 22-06-2010 14:06:02 23 C 4.93 g/m*3 23 C 0 km/h
792 22-06-2010 14:18:01 23.1 C 5.37 g/m*3 23.1 C 0 km/h
793 22-06-2010 14:30:01 23.2 C 5.41 g/m*3 23.2 C 0 km/h
794 22-06-2010 14:42:01 23.3 C 5.23 g/m*3 23.3 C 0 km/h
795 22-06-2010 14:54:01 23.9 C 4.98 g/m*3 23.9 C 0 km/h
796 22-06-2010 15:06:02 23.9 C 4.98 g/m*3 23.9 C 0 km/h
797 22-06-2010 15:18:02 24.7 C 4.75 g/m*3 24.7 C 0 km/h
798 22-06-2010 15:30:02 24.9 C 5.49 g/m*3 24.9 C 0 km/h
799 22-06-2010 15:42:01 25 C 5.06 g/m*3 25 C 0 km/h
800 22-06-2010 15:54:02 24.2 C 4.4 g/m*3 24.2 C 0 km/h
Sensor: Nr:Datum:Temp:Abs-Feuchte:Windchill:Wind:
Aussen-T/F 801 22-06-2010 16:06:01 23.3 C 4.81 g/m*3 23.3 C 0 km/h
802 22-06-2010 16:18:02 23.4 C 5.26 g/m*3 23.4 C 0 km/h
803 22-06-2010 16:30:02 24.9 C 5.04 g/m*3 24.9 C 0 km/h
804 22-06-2010 16:42:01 26 C 4.87 g/m*3 26 C 0 km/h
805 22-06-2010 16:54:03 23.8 C 4.73 g/m*3 23.8 C 0 km/h
806 22-06-2010 17:06:02 23.6 C 5.32 g/m*3 23.6 C 0 km/h
807 22-06-2010 17:18:02 22.8 C 5.08 g/m*3 22.8 C 0 km/h
808 22-06-2010 17:30:03 22.7 C 5.25 g/m*3 22.7 C 0 km/h
809 22-06-2010 17:42:02 23.3 C 5.23 g/m*3 23.3 C 0 km/h
810 22-06-2010 17:54:02 24.1 C 5.03 g/m*3 24.1 C 0 km/h
811 22-06-2010 18:06:01 23.7 C 4.92 g/m*3 23.7 C 0 km/h
812 22-06-2010 18:18:02 23.8 C 6.24 g/m*3 23.8 C 0 km/h
813 22-06-2010 18:30:02 23.3 C 6.48 g/m*3 23.3 C 0 km/h
814 22-06-2010 18:42:02 22.6 C 6.63 g/m*3 22.6 C 0 km/h
815 22-06-2010 18:54:01 22.3 C 6.91 g/m*3 22.3 C 0 km/h
816 22-06-2010 19:06:02 22.7 C 6.67 g/m*3 22.7 C 0 km/h
817 22-06-2010 19:18:01 23.3 C 6.27 g/m*3 23.3 C 0 km/h
818 22-06-2010 19:30:01 23.9 C 6.06 g/m*3 23.9 C 0 km/h
819 22-06-2010 19:42:02 24 C 5.87 g/m*3 24 C 0 km/h
820 22-06-2010 19:54:02 23.5 C 6.56 g/m*3 23.5 C 0 km/h
821 22-06-2010 20:06:02 22.8 C 6.5 g/m*3 22.8 C 0 km/h
822 22-06-2010 20:18:01 22.1 C 6.44 g/m*3 22.1 C 0 km/h
823 22-06-2010 20:30:01 21.1 C 6.63 g/m*3 21.1 C 0 km/h
824 22-06-2010 20:42:02 20 C 6.74 g/m*3 20 C 0 km/h
825 22-06-2010 20:54:02 19.2 C 6.76 g/m*3 19.2 C 0 km/h
Sensor: Nr:Datum:Temp:Abs-Feuchte:Windchill:Wind:
Aussen-T/F 826 22-06-2010 21:06:02 18.9 C 6.64 g/m*3 18.9 C 0 km/h
827 22-06-2010 21:18:01 18.3 C 6.41 g/m*3 18.3 C 0 km/h
828 22-06-2010 21:30:01 18 C 6.45 g/m*3 18 C 0 km/h
829 22-06-2010 21:42:02 17.6 C 6.45 g/m*3 17.6 C 0 km/h
830 22-06-2010 21:54:02 17.3 C 6.33 g/m*3 17.3 C 0 km/h
831 22-06-2010 22:06:02 16.8 C 6.72 g/m*3 16.8 C 0 km/h
832 22-06-2010 22:18:02 16.7 C 6.82 g/m*3 16.7 C 0 km/h
833 22-06-2010 22:30:02 16.3 C 6.8 g/m*3 16.3 C 0 km/h
834 22-06-2010 22:42:02 16 C 6.81 g/m*3 16 C 0 km/h
835 22-06-2010 22:55:05 15.8 C 6.87 g/m*3 15.8 C 0 km/h
836 22-06-2010 23:07:05 15.5 C 7.01 g/m*3 15.5 C 0 km/h
837 22-06-2010 23:19:05 15.2 C 6.88 g/m*3 15.2 C 0 km/h
838 22-06-2010 23:31:05 14.9 C 6.88 g/m*3 14.9 C 0 km/h
839 22-06-2010 23:43:05 14.7 C 7.05 g/m*3 14.7 C 0 km/h
840 22-06-2010 23:55:05 14.6 C 7.13 g/m*3 14.6 C 0 km/h

Legende:
   Min
   Max


Maximal/Minimal-Werte vom 16.06.2010 - 22.06.2010

Sensor Min Max Avg
Temp
(Aussen-T/F)
8.5 °C
21-06-2010  06:05:04
27.9 °C
16-06-2010  17:24:02
15.45 °C
Abs-Feuchte
(Aussen-T/F)
4.03 g/m*3
21-06-2010  17:05:02
12.44 g/m*3
17-06-2010  15:37:01
7.02 g/m*3
Windchill
(Aussen-T/F)
8.5 C
21-06-2010  06:05:04
27.9 C
16-06-2010  17:24:02
15.43 C

Die Daten stammen von einer Davis Vantage Pro 2 Wetter-Station und werden unter Linux mit der Software wview2wettercgi und aufbereitet. Alle Angaben erfolgen ohne Gewähr für ihre Vollständigkeit oder Richtigkeit.
Kontakt: Rainer Krienke krienke@uni-koblenz.de . Meine Webseiten an der Uni Koblenz oder privat.
Version: $Revision: 0.78 $